CSC779 ZUUU-ZBAA

Flight info

Callsign CSC779
Flight time N/A
Altitude 41100
Route GURE9Z GURET W233 AGULU W81 NSH G212 WJC W193 ALGOV W101 DUDIL W69 GUVBA GUVB4E
Aircraft A359/H-SDE2E3GHIJ1J3J4J5LM1ORWXYZ/LB1D1

Departure

Time 2026-05-04 07:38
Airport Chengdu Shuangliu International Airport (ZUUU)

Arrival

Time N/A
Airport Beijing Capital International Airport (ZBAA)
Time Latitude Longitude Altitude Speed Heading
2026-05-04 07:24 30.59509 103.95784 1642 ft 2 kts 195°
2026-05-04 07:24 30.59522 103.95790 1642 ft 2 kts 203°
2026-05-04 07:24 30.59535 103.95796 1642 ft 0 kts 202°
2026-05-04 07:24 30.59536 103.95797 1642 ft 0 kts 202°
2026-05-04 07:27 30.59533 103.95795 1642 ft 2 kts 202°
2026-05-04 07:27 30.59501 103.95771 1642 ft 7 kts 226°
2026-05-04 07:28 30.59483 103.95723 1642 ft 2 kts 254°
2026-05-04 07:28 30.59475 103.95699 1642 ft 4 kts 242°
2026-05-04 07:28 30.59451 103.95669 1642 ft 7 kts 216°
2026-05-04 07:28 30.59413 103.95647 1642 ft 12 kts 201°
2026-05-04 07:29 30.59338 103.95613 1642 ft 18 kts 202°
2026-05-04 07:29 30.59176 103.95537 1642 ft 32 kts 201°
2026-05-04 07:29 30.58929 103.95421 1642 ft 44 kts 202°
2026-05-04 07:29 30.58632 103.95281 1642 ft 45 kts 202°
2026-05-04 07:30 30.58338 103.95145 1642 ft 45 kts 202°
2026-05-04 07:30 30.58042 103.95006 1642 ft 45 kts 201°
2026-05-04 07:30 30.57750 103.94870 1642 ft 45 kts 202°
2026-05-04 07:30 30.57507 103.94756 1642 ft 25 kts 202°
2026-05-04 07:31 30.57338 103.94677 1642 ft 26 kts 202°
2026-05-04 07:31 30.57164 103.94595 1642 ft 29 kts 202°
2026-05-04 07:33 30.56169 103.94240 1642 ft 49 kts 202°
2026-05-04 07:33 30.55885 103.94110 1642 ft 36 kts 194°
2026-05-04 07:33 30.55644 103.94158 1642 ft 35 kts 158°
2026-05-04 07:33 30.55415 103.94271 1642 ft 36 kts 156°
2026-05-04 07:34 30.55263 103.94347 1642 ft 8 kts 155°
2026-05-04 07:34 30.55213 103.94387 1642 ft 9 kts 137°
2026-05-04 07:34 30.55170 103.94447 1642 ft 10 kts 119°
2026-05-04 07:34 30.55135 103.94538 1642 ft 13 kts 112°
2026-05-04 07:35 30.55100 103.94640 1642 ft 13 kts 112°
2026-05-04 07:35 30.55063 103.94747 1642 ft 14 kts 111°
2026-05-04 07:35 30.55025 103.94858 1642 ft 15 kts 111°
2026-05-04 07:35 30.54986 103.94969 1642 ft 4 kts 112°
2026-05-04 07:36 30.54974 103.95006 1642 ft 5 kts 116°
2026-05-04 07:36 30.54946 103.95036 1642 ft 5 kts 152°
2026-05-04 07:38 30.50756 103.93214 3212 ft 171 kts 191°
2026-05-04 07:38 30.49564 103.93065 3720 ft 177 kts 182°
2026-05-04 07:38 30.48286 103.92972 4016 ft 190 kts 185°
2026-05-04 07:38 30.46931 103.92820 4324 ft 204 kts 186°
2026-05-04 07:39 30.45492 103.92638 4680 ft 217 kts 186°
2026-05-04 07:39 30.43938 103.92429 5009 ft 232 kts 186°
2026-05-04 07:39 30.42279 103.92199 5328 ft 249 kts 187°
2026-05-04 07:39 30.40517 103.91951 5722 ft 266 kts 187°
2026-05-04 07:40 30.38640 103.91687 6179 ft 281 kts 187°
2026-05-04 07:40 30.36947 103.91448 6748 ft 288 kts 187°
2026-05-04 07:40 30.34992 103.91172 7498 ft 291 kts 186°
2026-05-04 07:40 30.32971 103.91076 8240 ft 295 kts 169°
2026-05-04 07:41 30.31110 103.91922 8978 ft 295 kts 142°
2026-05-04 07:41 30.29797 103.93550 9711 ft 294 kts 119°
2026-05-04 07:41 30.28854 103.95644 10492 ft 297 kts 114°
2026-05-04 07:41 30.28004 103.97750 10938 ft 311 kts 112°
2026-05-04 07:42 30.27141 104.00044 11323 ft 326 kts 106°
2026-05-04 07:42 30.26778 104.02651 11668 ft 340 kts 87°
2026-05-04 07:42 30.27218 104.05351 11993 ft 354 kts 67°
2026-05-04 07:42 30.28525 104.07806 12440 ft 364 kts 46°
2026-05-04 07:43 30.30422 104.09501 13093 ft 367 kts 28°
2026-05-04 07:43 30.32722 104.10758 13889 ft 368 kts 24°
2026-05-04 07:43 30.35070 104.11978 14607 ft 371 kts 24°
2026-05-04 07:43 30.37413 104.13187 15292 ft 375 kts 23°
2026-05-04 07:44 30.39779 104.14407 15972 ft 378 kts 23°
2026-05-04 07:44 30.42198 104.15655 16653 ft 381 kts 23°
2026-05-04 07:44 30.44593 104.16894 17309 ft 384 kts 23°
2026-05-04 07:44 30.47016 104.18147 17953 ft 387 kts 22°
2026-05-04 07:45 30.49477 104.19421 18589 ft 391 kts 22°
2026-05-04 07:45 30.51932 104.20693 19203 ft 394 kts 22°
2026-05-04 07:45 30.54430 104.21988 19808 ft 398 kts 22°
2026-05-04 07:45 30.56959 104.23299 20406 ft 402 kts 22°
2026-05-04 07:46 30.59513 104.24624 20987 ft 405 kts 21°
2026-05-04 07:46 30.62103 104.25969 21555 ft 409 kts 21°
2026-05-04 07:46 30.64672 104.27303 22097 ft 413 kts 21°
2026-05-04 07:46 30.67314 104.28675 22631 ft 417 kts 21°
2026-05-04 07:47 30.69953 104.30047 23148 ft 421 kts 21°
2026-05-04 07:47 30.72633 104.31440 23650 ft 425 kts 21°
2026-05-04 07:47 30.75325 104.32840 24128 ft 429 kts 20°
2026-05-04 07:49 30.90036 104.49616 26999 ft 479 kts 71°
2026-05-04 07:49 30.90942 104.53345 27350 ft 483 kts 71°
2026-05-04 07:49 30.91863 104.57085 27688 ft 486 kts 70°
2026-05-04 07:50 30.92818 104.60878 28032 ft 490 kts 70°
2026-05-04 07:50 30.93785 104.64654 28361 ft 493 kts 70°
2026-05-04 07:50 30.94754 104.68411 28655 ft 497 kts 70°
2026-05-04 07:50 30.95786 104.72243 29040 ft 498 kts 76°
2026-05-04 07:51 30.96801 104.76121 29287 ft 503 kts 76°
2026-05-04 07:51 30.97788 104.79995 29488 ft 508 kts 76°
2026-05-04 07:51 30.98798 104.83964 29735 ft 512 kts 76°
2026-05-04 07:51 30.99800 104.87882 29982 ft 516 kts 75°
2026-05-04 07:52 31.00929 104.91896 30222 ft 521 kts 72°
2026-05-04 07:52 31.02245 104.95811 30455 ft 526 kts 68°
2026-05-04 07:52 31.03789 104.99667 30692 ft 531 kts 64°
2026-05-04 07:52 31.05552 105.03439 30946 ft 533 kts 55°
2026-05-04 07:53 31.07453 105.07053 31437 ft 527 kts 53°
2026-05-04 07:54 31.21245 105.31912 33103 ft 528 kts 54°
2026-05-04 07:55 31.25158 105.39037 33139 ft 527 kts 53°
2026-05-04 07:55 31.29215 105.46088 33291 ft 527 kts 53°
2026-05-04 07:56 31.33299 105.53173 33442 ft 528 kts 53°
2026-05-04 07:56 31.37383 105.60307 33595 ft 528 kts 53°
2026-05-04 07:57 31.41344 105.67269 33740 ft 529 kts 54°
2026-05-04 07:57 31.45324 105.74315 33890 ft 529 kts 54°
2026-05-04 07:58 31.49364 105.81454 34040 ft 529 kts 54°
2026-05-04 07:58 31.53407 105.88595 34204 ft 530 kts 54°
2026-05-04 07:59 31.55450 105.92204 34469 ft 531 kts 54°
2026-05-04 07:59 31.57470 105.95776 34849 ft 528 kts 54°
2026-05-04 07:59 31.59474 105.99324 35224 ft 526 kts 54°
2026-05-04 07:59 31.61491 106.02895 35552 ft 525 kts 54°
2026-05-04 08:00 31.63501 106.06458 35853 ft 524 kts 54°
2026-05-04 08:00 31.65517 106.10033 36133 ft 524 kts 54°
2026-05-04 08:00 31.67505 106.13562 36396 ft 523 kts 54°
2026-05-04 08:02 31.81461 106.38422 38007 ft 523 kts 54°
2026-05-04 08:02 31.83474 106.42015 38209 ft 523 kts 54°
2026-05-04 08:02 31.85475 106.45590 38379 ft 524 kts 54°
2026-05-04 08:03 31.87464 106.49157 38562 ft 524 kts 54°
2026-05-04 08:03 31.89436 106.52710 38759 ft 523 kts 54°
2026-05-04 08:03 31.91421 106.56292 38944 ft 523 kts 54°
2026-05-04 08:03 31.93407 106.59874 39126 ft 523 kts 54°
2026-05-04 08:04 31.95378 106.63429 39298 ft 523 kts 54°
2026-05-04 08:04 31.97369 106.67018 39439 ft 524 kts 54°
2026-05-04 08:04 31.99357 106.70618 39549 ft 525 kts 55°
2026-05-04 08:04 32.01333 106.74200 39647 ft 526 kts 55°
2026-05-04 08:05 32.03316 106.77794 39748 ft 526 kts 54°
2026-05-04 08:05 32.05329 106.81436 39853 ft 527 kts 54°
2026-05-04 08:05 32.07307 106.85014 39964 ft 527 kts 55°
2026-05-04 08:05 32.09303 106.88625 40086 ft 528 kts 55°
2026-05-04 08:06 32.11315 106.92260 40211 ft 527 kts 54°
2026-05-04 08:06 32.13306 106.95839 40335 ft 527 kts 55°
2026-05-04 08:06 32.15316 106.99461 40454 ft 527 kts 55°
2026-05-04 08:06 32.17314 107.03075 40559 ft 527 kts 55°
2026-05-04 08:08 32.29441 107.29651 41064 ft 532 kts 69°
2026-05-04 08:08 32.30705 107.33807 41061 ft 533 kts 70°
2026-05-04 08:11 32.41965 107.70776 40996 ft 533 kts 70°
2026-05-04 08:11 32.45723 107.83146 40994 ft 534 kts 70°
2026-05-04 08:12 32.48302 107.91357 40992 ft 533 kts 64°
2026-05-04 08:12 32.52258 107.98690 40993 ft 528 kts 45°
2026-05-04 08:13 32.57786 108.04162 40994 ft 519 kts 26°
2026-05-04 08:13 32.64330 108.07453 40998 ft 508 kts 12°
2026-05-04 08:14 32.71097 108.09740 40991 ft 507 kts 10°
2026-05-04 08:16 32.98102 108.19175 40968 ft 509 kts 11°
2026-05-04 08:16 33.04896 108.21598 40966 ft 513 kts 10°
2026-05-04 08:17 33.11737 108.24034 40965 ft 517 kts
2026-05-04 08:17 33.18635 108.26474 40969 ft 520 kts
2026-05-04 08:19 33.42504 108.37478 40969 ft 539 kts 20°
2026-05-04 08:19 33.45852 108.39495 40969 ft 540 kts 20°
2026-05-04 08:20 33.52576 108.43534 40970 ft 542 kts 20°
2026-05-04 08:20 33.59295 108.47552 40969 ft 543 kts 20°
2026-05-04 08:21 33.66037 108.51579 40967 ft 544 kts 20°
2026-05-04 08:21 33.72800 108.55625 40967 ft 545 kts 20°
2026-05-04 08:22 33.79535 108.59658 40968 ft 546 kts 20°
2026-05-04 08:24 34.06679 108.76028 40969 ft 547 kts 20°
2026-05-04 08:24 34.13456 108.80077 40967 ft 546 kts 19°
2026-05-04 08:25 34.20393 108.83518 40966 ft 539 kts 12°
2026-05-04 08:25 34.27519 108.86013 40968 ft 531 kts
2026-05-04 08:27 34.56379 108.91007 40968 ft 527 kts
2026-05-04 08:28 34.63551 108.92896 40966 ft 534 kts
2026-05-04 08:28 34.70650 108.95415 40968 ft 536 kts
2026-05-04 08:29 34.77776 108.98018 40968 ft 536 kts
2026-05-04 08:31 35.06157 109.09113 40968 ft 538 kts 10°
2026-05-04 08:33 35.34533 109.20358 40968 ft 538 kts 10°
2026-05-04 08:35 35.62900 109.31693 40968 ft 538 kts 10°
2026-05-04 08:35 35.70004 109.34543 40968 ft 539 kts 10°
2026-05-04 08:37 35.91523 109.40064 40968 ft 525 kts 359°
2026-05-04 08:37 35.95129 109.40647 40968 ft 525 kts 359°
2026-05-04 08:38 36.02361 109.41836 40968 ft 526 kts 359°
2026-05-04 08:38 36.09565 109.43042 40968 ft 526 kts 359°
2026-05-04 08:40 36.38489 109.47923 40968 ft 526 kts 359°
2026-05-04 08:41 36.45661 109.48705 40967 ft 520 kts 354°
2026-05-04 08:41 36.52886 109.48992 40968 ft 518 kts 353°
2026-05-04 08:42 36.60046 109.49269 40968 ft 519 kts 353°
2026-05-04 08:42 36.67235 109.49622 40968 ft 520 kts 353°
2026-05-04 08:43 36.74409 109.49975 40968 ft 520 kts 353°
2026-05-04 08:43 36.81649 109.50322 40968 ft 520 kts 353°
2026-05-04 08:44 36.88827 109.50663 40968 ft 520 kts 353°
2026-05-04 08:46 37.17676 109.52042 40967 ft 523 kts 352°
2026-05-04 08:46 37.24942 109.52386 40969 ft 524 kts 352°
2026-05-04 08:47 37.32172 109.52730 40972 ft 524 kts 352°
2026-05-04 08:47 37.39431 109.53076 40975 ft 525 kts 352°
2026-05-04 08:48 37.46717 109.53426 40976 ft 525 kts 352°
2026-05-04 08:48 37.53990 109.53775 40979 ft 526 kts 352°
2026-05-04 08:49 37.61275 109.54125 40984 ft 526 kts 352°
2026-05-04 08:50 37.86823 109.55358 40993 ft 528 kts 352°
2026-05-04 08:51 37.94099 109.55711 40993 ft 528 kts 352°
2026-05-04 08:51 38.01439 109.56067 40993 ft 528 kts 352°
2026-05-04 08:52 38.08730 109.56421 40993 ft 528 kts 352°
2026-05-04 08:52 38.16025 109.56777 40992 ft 528 kts 352°
2026-05-04 08:54 38.45300 109.59641 40994 ft 541 kts
2026-05-04 08:55 38.52681 109.61567 40993 ft 542 kts
2026-05-04 08:55 38.60024 109.63490 40992 ft 542 kts
2026-05-04 09:01 39.36733 109.83065 40913 ft 532 kts
2026-05-04 09:01 39.43976 109.84924 40913 ft 532 kts
2026-05-04 09:02 39.51216 109.86565 40911 ft 525 kts 356°
2026-05-04 09:02 39.58388 109.87662 40914 ft 522 kts 355°
2026-05-04 09:03 39.65596 109.88680 40913 ft 522 kts 355°
2026-05-04 09:03 39.72795 109.89710 40913 ft 523 kts 355°
2026-05-04 09:04 39.79992 109.90752 40913 ft 523 kts 355°
2026-05-04 09:04 39.87195 109.91799 40913 ft 523 kts 355°
2026-05-04 09:05 39.94375 109.92844 40913 ft 523 kts 355°
2026-05-04 09:05 40.01589 109.93889 40913 ft 523 kts 355°
2026-05-04 09:06 40.08838 109.94978 40913 ft 526 kts 358°
2026-05-04 09:07 40.32528 110.10395 40915 ft 578 kts 33°
2026-05-04 09:08 40.35577 110.13871 40915 ft 579 kts 33°
2026-05-04 09:08 40.41656 110.20747 40914 ft 578 kts 32°
2026-05-04 09:09 40.47783 110.27565 40913 ft 579 kts 32°
2026-05-04 09:09 40.53876 110.34347 40914 ft 579 kts 32°
2026-05-04 09:10 40.59560 110.42027 40812 ft 596 kts 49°
2026-05-04 09:10 40.61706 110.46641 40565 ft 602 kts 60°
2026-05-04 09:10 40.63290 110.51796 40314 ft 607 kts 71°
2026-05-04 09:10 40.64207 110.57175 40063 ft 609 kts 82°
2026-05-04 09:11 40.64472 110.62730 39818 ft 608 kts 91°
2026-05-04 09:11 40.64393 110.68243 39564 ft 607 kts 94°
2026-05-04 09:11 40.64263 110.73841 39314 ft 607 kts 94°
2026-05-04 09:11 40.64163 110.79324 39067 ft 607 kts 93°
2026-05-04 09:12 40.64077 110.84841 38818 ft 608 kts 93°
2026-05-04 09:12 40.63995 110.90396 38569 ft 608 kts 92°
2026-05-04 09:14 40.63367 111.29299 36925 ft 609 kts 92°
2026-05-04 09:14 40.63191 111.40434 36918 ft 611 kts 91°
2026-05-04 09:15 40.63016 111.51535 36917 ft 611 kts 91°
2026-05-04 09:15 40.62832 111.62681 36916 ft 611 kts 92°
2026-05-04 09:17 40.61868 112.12233 36917 ft 611 kts 92°
2026-05-04 09:18 40.61603 112.23356 36661 ft 610 kts 92°
2026-05-04 09:18 40.61476 112.28891 36412 ft 609 kts 92°
2026-05-04 09:18 40.61350 112.34422 36164 ft 609 kts 92°
2026-05-04 09:19 40.61221 112.39998 35912 ft 609 kts 92°
2026-05-04 09:19 40.61086 112.45531 35663 ft 610 kts 92°
2026-05-04 09:19 40.60888 112.51120 35411 ft 610 kts 95°
2026-05-04 09:19 40.60600 112.56613 35164 ft 611 kts 95°
2026-05-04 09:20 40.60272 112.62241 34953 ft 611 kts 95°
2026-05-04 09:20 40.59961 112.67459 34917 ft 613 kts 96°
2026-05-04 09:20 40.59158 112.78704 34741 ft 611 kts 98°
2026-05-04 09:21 40.58707 112.84171 34219 ft 604 kts 97°
2026-05-04 09:21 40.58318 112.89584 33843 ft 595 kts 96°
2026-05-04 09:21 40.57962 112.94952 33467 ft 586 kts 96°
2026-05-04 09:21 40.57623 113.00172 33096 ft 580 kts 96°
2026-05-04 09:22 40.57277 113.05479 32718 ft 580 kts 96°
2026-05-04 09:22 40.56928 113.10768 32343 ft 581 kts 96°
2026-05-04 09:22 40.56578 113.16003 31969 ft 581 kts 96°
2026-05-04 09:22 40.56216 113.21350 31588 ft 580 kts 96°
2026-05-04 09:23 40.55857 113.26578 31215 ft 579 kts 96°
2026-05-04 09:23 40.55495 113.31848 30840 ft 579 kts 96°
2026-05-04 09:23 40.55135 113.37038 30466 ft 576 kts 96°
2026-05-04 09:23 40.54765 113.42306 30087 ft 571 kts 96°
2026-05-04 09:25 40.52248 113.77464 27476 ft 544 kts 96°
2026-05-04 09:25 40.51883 113.82478 27094 ft 540 kts 96°
2026-05-04 09:26 40.51526 113.87363 26720 ft 536 kts 96°
2026-05-04 09:26 40.51171 113.92175 26348 ft 532 kts 96°
2026-05-04 09:26 40.50807 113.97029 25970 ft 528 kts 96°
2026-05-04 09:26 40.50514 114.01814 25594 ft 525 kts 94°
2026-05-04 09:27 40.50294 114.06530 25224 ft 521 kts 93°
2026-05-04 09:27 40.50095 114.11261 24849 ft 516 kts 93°
2026-05-04 09:27 40.49903 114.15921 24476 ft 512 kts 93°
2026-05-04 09:27 40.49710 114.20553 24103 ft 507 kts 93°
2026-05-04 09:28 40.49515 114.25185 23725 ft 502 kts 93°
2026-05-04 09:28 40.49320 114.29719 23353 ft 498 kts 93°
2026-05-04 09:28 40.49125 114.34217 22980 ft 495 kts 93°
2026-05-04 09:28 40.48927 114.38687 22606 ft 491 kts 93°
2026-05-04 09:29 40.48729 114.43126 22232 ft 487 kts 93°
2026-05-04 09:29 40.48528 114.47573 21855 ft 483 kts 93°
2026-05-04 09:29 40.48330 114.51929 21483 ft 479 kts 93°
2026-05-04 09:29 40.48132 114.56270 21109 ft 476 kts 93°
2026-05-04 09:30 40.47932 114.60616 20731 ft 472 kts 93°
2026-05-04 09:30 40.47733 114.64883 20358 ft 469 kts 93°
2026-05-04 09:30 40.47535 114.69121 19982 ft 465 kts 94°
2026-05-04 09:30 40.47472 114.70441 19865 ft 464 kts 94°
2026-05-04 09:31 40.47334 114.73369 19604 ft 461 kts 94°